Regional Weather Roundup
Issued by NWS

Home | Current Version | Previous Version | Text Only | Print | Product List | Glossary On
Versions: 1 2 3 4 5 6 7 8 9 10 11 12 13 14 15 16 17 18 19 20 21 22 23 24 25 26 27 28 29 30 31 32 33 34 35 36 37 38 39 40 41 42 43 44 45 46 47 48 49 50
000
ASUS46 KPQR 272010
RWROR

OREGON REGIONAL WEATHER ROUNDUP
NATIONAL WEATHER SERVICE PORTLAND OR
1200 PM PST TUE JAN 27 2015

NOTE: "FAIR" INDICATES FEW OR NO CLOUDS BELOW 12,000 FEET WITH
NO SIGNIFICANT WEATHER AND/OR OBSTRUCTIONS TO VISIBILITY.

ORZ001>013-272100-
NORTHWEST OREGON


CITY           SKY/WX    TMP DP  RH WIND       PRES   REMARKS
ASTORIA        FOG       52  50  93 SW10      30.11S VSB 1
NEWPORT        CLOUDY    54  52  94 S6        30.16S
PORTLAND       CLOUDY    46  45  96 E6        30.15S FOG
VANCOUVER WA   CLOUDY    46  43  89 SE5       30.15S
SCAPPOOSE      CLOUDY    46  44  93 E3        30.14S
HILLSBORO      CLOUDY    44  44 100 CALM      30.15R FOG
AURORA         CLOUDY    46  45  96 CALM      30.16S FOG
MCMINNVILLE    CLOUDY    45  44  97 CALM      30.16S
SALEM          CLOUDY    48  45  89 CALM      30.14S FOG
CORVALLIS      CLOUDY    46  46 100 CALM      30.15S
EUGENE         CLOUDY    52  47  83 SE8       30.15R
$$

ORZ021-028-272100-
SOUTHWEST OREGON


CITY           SKY/WX    TMP DP  RH WIND       PRES   REMARKS
NORTH BEND     CLOUDY    55  54  94 S3        30.16S
BROOKINGS      CLOUDY    53  51  93 SE6       30.18R
ROSEBURG       CLOUDY    52  48  86 CALM      30.15S
SEXTON SUMMIT  CLOUDY    49  30  48 SW7       30.12S
MEDFORD        CLOUDY    45  41  86 CALM      30.15R FOG
$$

ORZ014>016-041-272100-
COLUMBIA GORGE


CITY           SKY/WX    TMP DP  RH WIND       PRES   REMARKS
TROUTDALE      CLOUDY    47  42  83 CALM      30.14S
THE DALLES     CLOUDY    41  38  89 S3        30.09F
$$

ORZ029>031-041-044-049-050-061>064-502-503-505>511-272100-
EASTERN OREGON


CITY           SKY/WX    TMP DP  RH WIND       PRES   REMARKS
REDMOND        PTSUNNY   51  36  56 E6        30.05F
BEND           PTSUNNY   48  36  61 CALM      30.06F
PRINEVILLE     CLOUDY    50  37  62 CALM      30.06F
KLAMATH FALLS  PTSUNNY   52  36  54 CALM      30.12
LAKEVIEW       CLOUDY    46  34  61 S14       30.15S
HERMISTON      CLOUDY    37  36  96 N3        30.07F FOG
PENDLETON      CLOUDY    38  36  92 NW13      30.03R FOG     WCI  30
JOHN DAY       CLOUDY    44  34  68 E3        30.06F
MEACHAM        MOSUNNY   49  35  58 CALM      30.03S
LA GRANDE      PTSUNNY   52  32  46 S14       30.04S
BAKER CITY     CLOUDY    40  35  83 CALM      30.08F
BURNS          CLOUDY    32  31  96 CALM      30.10F
ROME             N/A     34  31  88 CALM      30.08F
ONTARIO        CLOUDY    35  32  88 CALM      30.16F FOG
$$


USA.gov is the U.S. government's official web portal to all federal, state and local government web resources and services.